Location: El Limón
(10.3059°N, 67.6321°W)
Time: 18:27:48
(UTC+00:00)

Nadezhda 2 Rocket - Pass Details

Date: 22 December 2025
Orbit: 946 x 1011 km, 83.0° (Epoch: 11 January)

Event Time Altitude Azimuth Distance (km) Brightness Sun altitude
Rises 22:52:16 0° 342° (NNW) 3,611 7.4 -9.3°
Reaches altitude 10° 22:54:54 10° 334° (NNW) 2,671 6.9 -9.9°
Maximum altitude 23:00:28 38° 268° (W) 1,420 6.0 -11.1°
Drops below altitude 10° 23:06:08 10° 202° (SSW) 2,707 7.5 -12.4°
Sets 23:08:50 0° 194° (SSW) 3,664 8.1 -13.0°
